timestamp,wind_dir_avg,wind_spd_avg,wind_spd_max_dir,wind_spd_gust,battery_voltage,lat,long
2022-10-26 00:04:00+00:00,260.0,4.84,260.0,5.6,12.49,47.59359,-54.27349
2022-10-26 00:14:01+00:00,259.0,5.56,253.0,6.34,12.49,47.59359,-54.27349
2022-10-26 00:24:01+00:00,268.0,5.49,265.0,6.09,12.49,47.59359,-54.27349
2022-10-26 00:34:01+00:00,269.0,6.69,263.0,7.36,12.49,47.59359,-54.27349
2022-10-26 00:44:01+00:00,267.0,7.23,271.0,8.1,12.49,47.59359,-54.27349
2022-10-26 00:54:01+00:00,264.0,5.98,264.0,6.43,12.49,47.59359,-54.27349
2022-10-26 01:04:01+00:00,267.0,5.46,265.0,5.87,12.49,47.59359,-54.27349
2022-10-26 01:14:00+00:00,270.0,5.82,273.0,7.22,12.41,47.59359,-54.27349
2022-10-26 01:24:00+00:00,263.0,4.87,264.0,5.58,12.41,47.59359,-54.27349
2022-10-26 01:34:00+00:00,268.0,4.3,273.0,4.9,12.41,47.59359,-54.27349
2022-10-26 01:44:00+00:00,272.0,5.37,271.0,5.84,12.41,47.59359,-54.27349
2022-10-26 01:54:00+00:00,266.0,5.52,268.0,6.19,12.41,47.59359,-54.27349
2022-10-26 02:04:00+00:00,271.0,5.31,271.0,5.64,12.41,47.59359,-54.27349
2022-10-26 02:14:00+00:00,270.0,5.49,265.0,6.15,12.41,47.59359,-54.27349
2022-10-26 02:24:00+00:00,274.0,4.73,276.0,5.5,12.41,47.59359,-54.27349
2022-10-26 02:34:00+00:00,267.0,2.81,264.0,3.2,12.41,47.59359,-54.27349
2022-10-26 02:44:00+00:00,263.0,1.92,259.0,2.16,12.41,47.59359,-54.27349
2022-10-26 02:54:00+00:00,259.0,3.57,259.0,4.06,12.41,47.59359,-54.27349
2022-10-26 03:04:00+00:00,264.0,4.35,265.0,4.83,12.41,47.59359,-54.27349
2022-10-26 03:14:00+00:00,277.0,3.82,275.0,4.16,12.33,47.59359,-54.27349
2022-10-26 03:24:00+00:00,267.0,3.32,270.0,3.54,12.33,47.59359,-54.27349
2022-10-26 03:34:00+00:00,248.0,3.25,245.0,3.64,12.33,47.59359,-54.27349
2022-10-26 03:44:00+00:00,260.0,2.52,264.0,2.85,12.33,47.59359,-54.27349
2022-10-26 03:54:00+00:00,275.0,3.74,274.0,3.98,12.33,47.59359,-54.27349
2022-10-26 04:04:00+00:00,260.0,3.99,257.0,4.54,12.33,47.59359,-54.27349
2022-10-26 04:14:00+00:00,256.0,4.5,259.0,5.0,12.33,47.59359,-54.27349
2022-10-26 04:24:00+00:00,281.0,4.21,280.0,4.79,12.33,47.59359,-54.27349
2022-10-26 04:34:00+00:00,277.0,5.37,277.0,5.61,12.33,47.59359,-54.27349
2022-10-26 04:44:00+00:00,272.0,3.77,280.0,4.32,12.33,47.59359,-54.27349
2022-10-26 04:54:00+00:00,271.0,3.44,270.0,4.15,12.33,47.59359,-54.27349
2022-10-26 05:04:00+00:00,259.0,3.87,258.0,4.19,12.33,47.59359,-54.27349
2022-10-26 05:14:00+00:00,264.0,4.3,256.0,5.24,12.33,47.59359,-54.27349
2022-10-26 05:24:00+00:00,247.0,4.1,244.0,4.37,12.33,47.59359,-54.27349
2022-10-26 05:34:00+00:00,263.0,3.72,263.0,3.93,12.33,47.59359,-54.27349
2022-10-26 05:44:00+00:00,257.0,4.07,253.0,4.64,12.33,47.59359,-54.27349
2022-10-26 05:54:00+00:00,263.0,4.68,263.0,5.07,12.33,47.59359,-54.27349
2022-10-26 06:04:00+00:00,234.0,3.27,227.0,3.86,12.33,47.59359,-54.27349
2022-10-26 06:14:00+00:00,257.0,2.5,266.0,3.04,12.33,47.59359,-54.27349
2022-10-26 06:24:00+00:00,239.0,1.88,236.0,2.27,12.33,47.59359,-54.27349
2022-10-26 06:34:00+00:00,237.0,2.05,244.0,2.78,12.33,47.59359,-54.27349
2022-10-26 06:44:00+00:00,239.0,1.8,243.0,2.12,12.33,47.59359,-54.27349
2022-10-26 06:54:00+00:00,230.0,1.61,237.0,1.83,12.33,47.59359,-54.27349
2022-10-26 07:04:00+00:00,227.0,2.85,229.0,3.36,12.33,47.59359,-54.27349
2022-10-26 07:14:01+00:00,235.0,2.7,234.0,3.25,12.25,47.59359,-54.27349
2022-10-26 07:24:01+00:00,225.0,3.15,223.0,3.64,12.25,47.59359,-54.27349
2022-10-26 07:34:01+00:00,227.0,2.51,226.0,2.93,12.25,47.59359,-54.27349
2022-10-26 07:44:01+00:00,230.0,3.31,233.0,3.57,12.25,47.59359,-54.27349
2022-10-26 07:54:01+00:00,225.0,3.09,222.0,3.77,12.25,47.59359,-54.27349
2022-10-26 08:04:01+00:00,220.0,4.43,220.0,4.76,12.25,47.59359,-54.27349
2022-10-26 08:14:01+00:00,221.0,4.08,223.0,4.86,12.25,47.59359,-54.27349
2022-10-26 08:24:01+00:00,215.0,4.37,216.0,4.7,12.25,47.59359,-54.27349
2022-10-26 08:34:01+00:00,218.0,3.73,226.0,4.6,12.25,47.59359,-54.27349
2022-10-26 08:44:01+00:00,214.0,3.93,217.0,4.49,12.25,47.59359,-54.27349
2022-10-26 08:54:01+00:00,221.0,3.66,224.0,4.38,12.25,47.59359,-54.27349
2022-10-26 09:04:01+00:00,231.0,3.79,242.0,5.4,12.25,47.59359,-54.27349
2022-10-26 09:14:01+00:00,201.0,2.3,200.0,2.73,12.25,47.59359,-54.27349
2022-10-26 09:24:01+00:00,192.0,3.45,196.0,3.99,12.25,47.59359,-54.27349
2022-10-26 09:34:01+00:00,192.0,3.89,189.0,4.32,12.25,47.59359,-54.27349
2022-10-26 09:44:01+00:00,190.0,2.96,192.0,3.47,12.25,47.59359,-54.27349
2022-10-26 09:54:01+00:00,206.0,2.65,211.0,3.13,12.25,47.59359,-54.27349
2022-10-26 10:04:01+00:00,210.0,3.09,213.0,3.47,12.25,47.59359,-54.27349
2022-10-26 10:14:00+00:00,223.0,2.34,219.0,3.04,12.25,47.59359,-54.27349
2022-10-26 10:24:00+00:00,215.0,3.3,215.0,3.77,12.25,47.59359,-54.27349
2022-10-26 10:34:00+00:00,218.0,2.92,224.0,3.71,12.25,47.59359,-54.27349
2022-10-26 10:44:00+00:00,227.0,3.79,232.0,4.4,12.25,47.59359,-54.27349
2022-10-26 10:54:00+00:00,232.0,3.25,242.0,3.77,12.25,47.59359,-54.27349
2022-10-26 11:04:00+00:00,222.0,2.33,220.0,2.98,12.25,47.59359,-54.27349
2022-10-26 11:14:00+00:00,211.0,2.9,212.0,3.16,12.33,47.59359,-54.27349
2022-10-26 11:24:00+00:00,228.0,3.31,226.0,3.58,12.33,47.59359,-54.27349
2022-10-26 11:34:00+00:00,217.0,2.66,216.0,3.1,12.33,47.59359,-54.27349
2022-10-26 11:44:00+00:00,204.0,2.86,208.0,3.03,12.33,47.59359,-54.27349
2022-10-26 11:54:00+00:00,211.0,2.68,205.0,3.2,12.33,47.59359,-54.27349
2022-10-26 12:04:00+00:00,218.0,4.11,217.0,4.69,12.33,47.59359,-54.27349
2022-10-26 12:14:00+00:00,233.0,2.88,236.0,3.52,13.68,47.59359,-54.27349
2022-10-26 12:24:00+00:00,248.0,4.22,251.0,4.69,13.68,47.59359,-54.27349
2022-10-26 12:34:00+00:00,256.0,4.61,257.0,5.21,13.68,47.59359,-54.27349
2022-10-26 12:44:00+00:00,265.0,4.98,272.0,5.39,13.68,47.59359,-54.27349
2022-10-26 12:54:00+00:00,250.0,2.3,251.0,2.93,13.68,47.59359,-54.27349
2022-10-26 13:04:00+00:00,225.0,2.92,227.0,3.18,13.68,47.59359,-54.27349
2022-10-26 13:14:00+00:00,219.0,2.83,222.0,2.98,13.37,47.59359,-54.27349
2022-10-26 13:24:00+00:00,216.0,3.25,220.0,3.37,13.37,47.59359,-54.27349
2022-10-26 13:34:00+00:00,247.0,3.35,233.0,4.25,13.37,47.59359,-54.27349
2022-10-26 13:44:00+00:00,225.0,3.76,223.0,4.36,13.37,47.59359,-54.27349
2022-10-26 13:54:00+00:00,235.0,3.0,236.0,3.44,13.37,47.59359,-54.27349
2022-10-26 14:04:00+00:00,215.0,2.69,211.0,3.72,13.37,47.59359,-54.27349
2022-10-26 14:14:00+00:00,211.0,2.18,215.0,2.57,13.92,47.59359,-54.27349
2022-10-26 14:24:00+00:00,177.0,3.03,176.0,3.22,13.92,47.59359,-54.27349
2022-10-26 14:34:00+00:00,205.0,3.06,205.0,3.51,13.92,47.59359,-54.27349
2022-10-26 14:44:00+00:00,203.0,4.04,201.0,4.52,13.92,47.59359,-54.27349
2022-10-26 14:54:00+00:00,200.0,4.44,202.0,5.15,13.92,47.59359,-54.27349
2022-10-26 15:04:00+00:00,209.0,3.74,211.0,4.11,13.92,47.59359,-54.27349
2022-10-26 15:14:00+00:00,218.0,3.27,223.0,3.58,13.76,47.59359,-54.27349
2022-10-26 15:24:00+00:00,210.0,3.34,218.0,3.96,13.76,47.59359,-54.27349
2022-10-26 15:34:00+00:00,212.0,4.86,214.0,5.34,13.76,47.59359,-54.27349
2022-10-26 15:44:00+00:00,214.0,4.83,211.0,5.3,13.76,47.59359,-54.27349
2022-10-26 15:54:00+00:00,209.0,4.0,212.0,4.54,13.76,47.59359,-54.27349
2022-10-26 16:04:00+00:00,230.0,3.94,233.0,4.43,13.76,47.59359,-54.27349
2022-10-26 16:14:00+00:00,219.0,3.38,224.0,3.9,13.53,47.59359,-54.27349
2022-10-26 16:24:00+00:00,216.0,3.25,221.0,3.49,13.53,47.59359,-54.27349
2022-10-26 16:34:00+00:00,218.0,3.28,217.0,3.57,13.53,47.59359,-54.27349
2022-10-26 16:44:00+00:00,217.0,3.26,215.0,3.46,13.53,47.59359,-54.27349
2022-10-26 16:54:00+00:00,231.0,2.58,228.0,2.75,13.53,47.59359,-54.27349
2022-10-26 17:04:00+00:00,241.0,2.48,238.0,2.88,13.53,47.59359,-54.27349
2022-10-26 17:14:00+00:00,252.0,2.09,263.0,2.68,13.53,47.59359,-54.27349
2022-10-26 17:24:00+00:00,261.0,2.23,267.0,2.43,13.53,47.59359,-54.27349
2022-10-26 17:34:00+00:00,268.0,3.28,271.0,3.54,13.53,47.59359,-54.27349
2022-10-26 17:44:00+00:00,267.0,3.02,261.0,3.24,13.53,47.59359,-54.27349
2022-10-26 17:54:00+00:00,231.0,2.5,221.0,3.22,13.53,47.59359,-54.27349
2022-10-26 18:04:00+00:00,231.0,2.75,233.0,3.32,13.53,47.59359,-54.27349
2022-10-26 18:14:01+00:00,246.0,3.49,247.0,3.98,14.4,47.59359,-54.27349
2022-10-26 18:24:01+00:00,254.0,4.43,260.0,5.96,14.4,47.59359,-54.27349
2022-10-26 18:34:01+00:00,259.0,5.72,259.0,6.1,14.4,47.59359,-54.27349
2022-10-26 18:44:01+00:00,261.0,6.08,261.0,6.73,14.4,47.59359,-54.27349
2022-10-26 18:54:01+00:00,258.0,4.82,256.0,5.45,14.4,47.59359,-54.27349
2022-10-26 19:04:01+00:00,260.0,5.71,260.0,6.23,14.4,47.59359,-54.27349
2022-10-26 19:14:00+00:00,257.0,5.36,259.0,5.84,13.84,47.59359,-54.27349
2022-10-26 19:24:00+00:00,258.0,4.76,263.0,5.28,13.84,47.59359,-54.27349
2022-10-26 19:34:00+00:00,259.0,5.47,260.0,6.16,13.84,47.59359,-54.27349
2022-10-26 19:44:00+00:00,266.0,6.02,259.0,6.61,13.84,47.59359,-54.27349
2022-10-26 19:54:00+00:00,251.0,6.53,252.0,6.77,13.84,47.59359,-54.27349
2022-10-26 20:04:00+00:00,241.0,5.71,239.0,6.66,13.84,47.59359,-54.27349
2022-10-26 20:14:00+00:00,256.0,5.79,257.0,7.27,13.6,47.59359,-54.27349
2022-10-26 20:24:00+00:00,233.0,4.11,235.0,4.61,13.6,47.59359,-54.27349
2022-10-26 20:34:00+00:00,227.0,3.14,225.0,3.7,13.6,47.59359,-54.27349
2022-10-26 20:44:00+00:00,266.0,3.62,270.0,4.98,13.6,47.59359,-54.27349
2022-10-26 20:54:00+00:00,243.0,3.57,245.0,4.26,13.6,47.59359,-54.27349
2022-10-26 21:04:00+00:00,270.0,3.26,268.0,4.1,13.6,47.59359,-54.27349
2022-10-26 21:14:00+00:00,221.0,2.09,212.0,2.6,12.73,47.59359,-54.27349
2022-10-26 21:24:00+00:00,246.0,2.4,246.0,2.73,12.73,47.59359,-54.27349
2022-10-26 21:34:00+00:00,285.0,2.42,289.0,2.94,12.73,47.59359,-54.27349
2022-10-26 21:44:00+00:00,265.0,5.14,271.0,6.13,12.73,47.59359,-54.27349
2022-10-26 21:54:00+00:00,268.0,4.8,267.0,5.31,12.73,47.59359,-54.27349
2022-10-26 22:04:00+00:00,232.0,2.3,242.0,2.62,12.73,47.59359,-54.27349
2022-10-26 22:14:00+00:00,245.0,2.25,255.0,2.84,12.41,47.59359,-54.27349
2022-10-26 22:24:00+00:00,240.0,2.36,239.0,2.91,12.41,47.59359,-54.27349
2022-10-26 22:34:00+00:00,243.0,3.83,247.0,4.3,12.41,47.59359,-54.27349
2022-10-26 22:44:00+00:00,245.0,3.63,248.0,4.33,12.41,47.59359,-54.27349
2022-10-26 22:54:00+00:00,239.0,3.48,239.0,4.08,12.41,47.59359,-54.27349
2022-10-26 23:04:00+00:00,226.0,2.99,232.0,3.53,12.41,47.59359,-54.27349
2022-10-26 23:14:00+00:00,217.0,3.81,214.0,4.75,12.41,47.59359,-54.27349
2022-10-26 23:24:00+00:00,221.0,3.41,221.0,3.94,12.41,47.59359,-54.27349
2022-10-26 23:34:00+00:00,219.0,2.95,219.0,3.18,12.41,47.59359,-54.27349
2022-10-26 23:44:00+00:00,205.0,3.99,201.0,4.77,12.41,47.59359,-54.27349
2022-10-26 23:54:00+00:00,212.0,4.04,214.0,4.46,12.41,47.59359,-54.27349
